Regional Weather Roundup
Issued by NWS

Home | Current Version | Previous Version | Text Only | Print | Product List | Glossary On
Versions: 1 2 3 4 5 6 7 8 9 10 11 12 13 14 15 16 17 18 19 20 21 22 23 24 25 26 27 28 29 30 31 32 33 34 35 36 37 38 39 40 41 42 43 44 45 46 47 48 49 50
000
ASUS45 KPSR 230410
RWRAZ

ARIZONA REGIONAL HOURLY WEATHER ROUNDUP
NATIONAL WEATHER SERVICE PHOENIX AZ
900 PM MST TUE JUL 22 2014

NOTE: FAIR INDICATES FEW OR NO CLOUDS BELOW 12,000 FEET WITH NO
SIGNIFICANT WEATHER AND/OR OBSTRUCTIONS TO VISIBILITY.

AZZ001>003-036-230500-
NORTHWEST ARIZONA

CITY           SKY/WX    TMP DP  RH WIND       PRES   REMARKS
BULLHEAD CITY  CLEAR    102  30   8 CALM      29.83R
KINGMAN        CLEAR     84  27  12 S12       30.07S
$$

AZZ004>008-015-016-018-230500-
NORTH CENTRAL ARIZONA

CITY           SKY/WX    TMP DP  RH WIND       PRES   REMARKS
GRAND CANYON   MOCLDY    73  41  31 CALM      30.36R
WILLIAMS       PTCLDY    66  43  42 SE7       30.43R
PRESCOTT       CLEAR     83  39  21 SW6       30.21R
FLAGSTAFF      PTCLDY    71  40  32 W3        30.40R
PAYSON         PTCLDY    82  41  23 CALM      30.26R
PAGE           MOCLDY    95  34  11 SW6       30.10R
$$

AZZ009>014-017-230500-
NORTHEAST ARIZONA

CITY           SKY/WX    TMP DP  RH WIND       PRES   REMARKS
WINSLOW        MOCLDY    89  46  22 S20G28    30.19R
SAINT JOHNS    CLOUDY    79  50  36 SE16      30.30R
WINDOW ROCK    CLOUDY    78  44  29 S13       30.40R
SHOW LOW       CLOUDY    75  43  31 SE6       30.37S
$$

AZZ023-230500-
GREATER PHOENIX AREA

CITY           SKY/WX    TMP DP  RH WIND       PRES   REMARKS
PHOENIX        CLEAR    105  46  13 W7        29.82R HX 101
BUCKEYE          N/A     95  54  24 SW6       29.84R
LUKE AFB       NOT AVBL
DEER VALLEY    CLEAR    102  46  15 SW7       29.86R
SCOTTSDALE     CLEAR    103  47  15 CALM      29.88R
MESA-GATEWAY   CLEAR    100  45  15 SW3       29.88R
CHANDLER       PTCLDY   102  48  16 SW8       29.85R
$$

AZZ027-028-230500-
SOUTHWEST MARICOPA COUNTY AND PINAL COUNTY

CITY           SKY/WX    TMP DP  RH WIND       PRES   REMARKS
CASA GRANDE    CLEAR     99  48  18 CALM      29.89R
GILA BEND      CLEAR    102  43  13 W6        29.85R
$$

AZZ503-504-507>509-230500-
SOUTHEAST ARIZONA

CITY           SKY/WX    TMP DP  RH WIND       PRES   REMARKS
TUCSON         PTCLDY    99  47  17 N7        30.00R
DAVIS-MONTHAN  MOCLDY    98  50  19 NW6       29.99R
NOGALES        CLOUDY    89  52  28 SE6       30.12R
SIERRA VISTA   CLOUDY    88  50  27 SW6       30.20R
DOUGLAS        CLOUDY    83  55  38 SW13G23   30.18R
SAFFORD        CLOUDY    93  50  23 E13       30.06R
$$

AZZ020-021-025-026-031-230500-
SOUTHWEST ARIZONA

CITY           SKY/WX    TMP DP  RH WIND       PRES   REMARKS
YUMA           NOT AVBL
$$

CAZ031-033-041-043-047-048-061-230500-
SOUTHERN CALIFORNIA

CITY           SKY/WX    TMP DP  RH WIND       PRES   REMARKS
DOWNTOWN L.A.  CLEAR     72  59  63 CALM      29.98R
L.A. AIRPORT   CLEAR     71  60  68 W13       29.98S
SAN DIEGO      PTCLDY    73  60  63 N7        30.01S
BURBANK        CLEAR     80  55  42 W7        30.00R
ONTARIO        CLEAR     79  51  37 SW8       30.01R
RIVERSIDE      CLEAR     79  48  33 W8        30.01R
PALM SPRINGS   CLEAR     99  49  18 NW15      29.85R
EL CENTRO NAS  CLEAR     96  49  20 SW13      29.79R
IMPERIAL       CLEAR     95  45  17 W8        29.79R
BLYTHE         CLEAR    104  40  11 SW5       29.80R
NEEDLES        CLEAR    103  30   8 SW12      29.84R
$$

NVZ020-UTZ003-230500-
SOUTHERN NEVADA-UTAH

CITY           SKY/WX    TMP DP  RH WIND       PRES   REMARKS
LAS VEGAS      PTCLDY    99  21   6 SW12      29.90R
SALT LAKE CITY PTCLDY    80  50  34 W7        30.07R
$$

NMZ009-TXZ055-230500-
NEW MEXICO-WEST TEXAS

CITY           SKY/WX    TMP DP  RH WIND       PRES   REMARKS
ALBUQUERQUE    CLOUDY    80  55  42 SE10      30.34F
EL PASO        LGT RAIN  79  64  60 W7        30.18S
$$


........................KEY........................
SKY/WX - SKY CONDITION/WEATHER
TMP    - TEMPERATURE IN FAHRENHEIT
DP     - DEW POINT IN FAHRENHEIT
RH     - RELATIVE HUMIDITY IN PERCENT
WIND   - DIRECTION AND SPEED IN MILES PER HOUR (MPH)
VRB    - VARIABLE WIND DIRECTION
PRES   - MEAN SEA LEVEL PRESSURE IN INCHES OF MERCURY
         F - FALLING PRESSURE   R - RISING PRESSURE
         S - STEADY PRESSURE
VSB    - VISIBILITY IN MILES
HX     - HEAT INDEX IN FAHRENHEIT
WCI    - WIND CHILL INDEX IN FAHRENHEIT
TC     - TEMPERATURE IN CELSIUS WHICH IS ALSO KNOWN AS
         TEMPERATURE IN CENTIGRADE
AFB    - AIR FORCE BASE
         LUKE AFB IS LUKE AIR FORCE BASE
         DAVIS-MONTHAN IS DAVIS-MONTHAN AIR FORCE BASE
NAS    - NAVAL AIR STATION
         EL CENTRO NAS IS EL CENTRO NAVAL AIR STATION
N/A    - NOT AVAILABLE


USA.gov is the U.S. government's official web portal to all federal, state and local government web resources and services.